Year,Month,Day,Hour,Minute,Value (Times are PST for temperature in C)
2018,11,12,00,00,2.30
2018,11,12,00,01,2.30
2018,11,12,00,02,2.40
2018,11,12,00,03,2.40
2018,11,12,00,04,2.40
2018,11,12,00,05,2.40
2018,11,12,00,06,2.40
2018,11,12,00,07,2.40
2018,11,12,00,08,2.40
2018,11,12,00,09,2.40
2018,11,12,00,10,2.40
2018,11,12,00,11,2.40
2018,11,12,00,12,2.40
2018,11,12,00,13,2.40
2018,11,12,00,14,2.40
2018,11,12,00,15,2.40
2018,11,12,00,16,2.40
2018,11,12,00,17,2.40
2018,11,12,00,18,2.40
2018,11,12,00,19,2.40
2018,11,12,00,20,2.40
2018,11,12,00,21,2.40
2018,11,12,00,22,2.40
2018,11,12,00,23,2.40
2018,11,12,00,24,2.40
2018,11,12,00,25,2.40
2018,11,12,00,26,2.40
2018,11,12,00,27,2.40
2018,11,12,00,28,2.40
2018,11,12,00,29,2.40
2018,11,12,00,30,2.50
2018,11,12,00,31,2.50
2018,11,12,00,32,2.50
2018,11,12,00,33,2.60
2018,11,12,00,34,2.60
2018,11,12,00,35,2.60
2018,11,12,00,36,2.60
2018,11,12,00,37,2.70
2018,11,12,00,38,2.70
2018,11,12,00,39,2.70
2018,11,12,00,40,2.80
2018,11,12,00,41,2.80
2018,11,12,00,42,2.80
2018,11,12,00,43,2.80
2018,11,12,00,44,2.80
2018,11,12,00,45,2.70
2018,11,12,00,46,2.70
2018,11,12,00,47,2.70
2018,11,12,00,48,2.70
2018,11,12,00,49,2.70
2018,11,12,00,50,2.70
2018,11,12,00,51,2.70
2018,11,12,00,52,2.70
2018,11,12,00,53,2.70
2018,11,12,00,54,2.70
2018,11,12,00,55,2.80
2018,11,12,00,56,2.80
2018,11,12,00,57,2.80
2018,11,12,00,58,2.80
2018,11,12,00,59,2.80
2018,11,12,01,00,2.80
2018,11,12,01,01,2.80
2018,11,12,01,02,2.80
2018,11,12,01,03,2.80
2018,11,12,01,04,2.70
2018,11,12,01,05,2.70
2018,11,12,01,06,2.70
2018,11,12,01,07,2.70
2018,11,12,01,08,2.70
2018,11,12,01,09,2.70
2018,11,12,01,10,2.70
2018,11,12,01,11,2.70
2018,11,12,01,12,2.70
2018,11,12,01,13,2.70
2018,11,12,01,14,2.70
2018,11,12,01,15,2.70
2018,11,12,01,16,2.70
2018,11,12,01,17,2.70
2018,11,12,01,18,2.70
2018,11,12,01,19,2.70
2018,11,12,01,20,2.70
2018,11,12,01,21,2.80
2018,11,12,01,22,2.80
2018,11,12,01,23,2.80
2018,11,12,01,24,2.80
2018,11,12,01,25,2.80
2018,11,12,01,26,2.80
2018,11,12,01,27,2.80
2018,11,12,01,28,2.90
2018,11,12,01,29,2.90
2018,11,12,01,30,2.90
2018,11,12,01,31,2.90
2018,11,12,01,32,2.90
2018,11,12,01,33,2.90
2018,11,12,01,34,2.90
2018,11,12,01,35,2.90
2018,11,12,01,36,2.90
2018,11,12,01,37,2.90
2018,11,12,01,38,3.00
2018,11,12,01,39,3.00
2018,11,12,01,40,3.00
2018,11,12,01,41,3.00
2018,11,12,01,42,3.10
2018,11,12,01,43,3.10
2018,11,12,01,44,3.10
2018,11,12,01,45,3.10
2018,11,12,01,46,3.10
2018,11,12,01,47,3.10
2018,11,12,01,48,3.10
2018,11,12,01,49,3.10
2018,11,12,01,50,3.10
2018,11,12,01,51,3.10
2018,11,12,01,52,3.20
2018,11,12,01,53,3.20
2018,11,12,01,54,3.20
2018,11,12,01,55,3.20
2018,11,12,01,56,3.20
2018,11,12,01,57,3.20
2018,11,12,01,58,3.20
2018,11,12,01,59,3.20
2018,11,12,02,00,3.20
2018,11,12,02,01,3.10
2018,11,12,02,02,3.10
2018,11,12,02,03,3.10
2018,11,12,02,04,3.10
2018,11,12,02,05,3.10
2018,11,12,02,06,3.10
2018,11,12,02,07,3.00
2018,11,12,02,08,3.00
2018,11,12,02,09,3.00
2018,11,12,02,10,2.90
2018,11,12,02,11,2.90
2018,11,12,02,12,2.90
2018,11,12,02,13,2.80
2018,11,12,02,14,2.80
2018,11,12,02,15,2.80
2018,11,12,02,16,2.80
2018,11,12,02,17,2.80
2018,11,12,02,18,2.80
2018,11,12,02,19,2.80
2018,11,12,02,20,2.80
2018,11,12,02,21,2.80
2018,11,12,02,22,2.80
2018,11,12,02,23,2.80
2018,11,12,02,24,2.80
2018,11,12,02,25,2.70
2018,11,12,02,26,2.70
2018,11,12,02,27,2.80
2018,11,12,02,28,2.80
2018,11,12,02,29,2.80
2018,11,12,02,30,2.80
2018,11,12,02,31,2.80
2018,11,12,02,32,2.80
2018,11,12,02,33,2.80
2018,11,12,02,34,2.80
2018,11,12,02,35,2.80
2018,11,12,02,36,2.80
2018,11,12,02,37,2.70
2018,11,12,02,38,2.70
2018,11,12,02,39,2.60
2018,11,12,02,40,2.60
2018,11,12,02,41,2.60
2018,11,12,02,42,2.50
2018,11,12,02,43,2.50
2018,11,12,02,44,2.50
2018,11,12,02,45,2.50
2018,11,12,02,46,2.50
2018,11,12,02,47,2.50
2018,11,12,02,48,2.40
2018,11,12,02,49,2.40
2018,11,12,02,50,2.40
2018,11,12,02,51,2.40
2018,11,12,02,52,2.30
2018,11,12,02,53,2.30
2018,11,12,02,54,2.30
2018,11,12,02,55,2.30
2018,11,12,02,56,2.30
2018,11,12,02,57,2.30
2018,11,12,02,58,2.30
2018,11,12,02,59,2.30
2018,11,12,03,00,2.30
2018,11,12,03,01,2.30
2018,11,12,03,02,2.30
2018,11,12,03,03,2.30
2018,11,12,03,04,2.30
2018,11,12,03,05,2.30
2018,11,12,03,06,2.30
2018,11,12,03,07,2.20
2018,11,12,03,08,2.20
2018,11,12,03,09,2.20
2018,11,12,03,10,2.20
2018,11,12,03,11,2.30
2018,11,12,03,12,2.30
2018,11,12,03,13,2.30
2018,11,12,03,14,2.30
2018,11,12,03,15,2.30
2018,11,12,03,16,2.30
2018,11,12,03,17,2.30
2018,11,12,03,18,2.30
2018,11,12,03,19,2.40
2018,11,12,03,20,2.40
2018,11,12,03,21,2.40
2018,11,12,03,22,2.40
2018,11,12,03,23,2.40
2018,11,12,03,24,2.40
2018,11,12,03,25,2.50
2018,11,12,03,26,2.40
2018,11,12,03,27,2.40
2018,11,12,03,28,2.40
2018,11,12,03,29,2.40
2018,11,12,03,30,2.40
2018,11,12,03,31,2.40
2018,11,12,03,32,2.40
2018,11,12,03,33,2.40
2018,11,12,03,34,2.40
2018,11,12,03,35,2.40
2018,11,12,03,36,2.40
2018,11,12,03,37,2.40
2018,11,12,03,38,2.40
2018,11,12,03,39,2.40
2018,11,12,03,40,2.40
2018,11,12,03,41,2.30
2018,11,12,03,42,2.30
2018,11,12,03,43,2.30
2018,11,12,03,44,2.30
2018,11,12,03,45,2.30
2018,11,12,03,46,2.30
2018,11,12,03,47,2.30
2018,11,12,03,48,2.30
2018,11,12,03,49,2.30
2018,11,12,03,50,2.30
2018,11,12,03,51,2.30
2018,11,12,03,52,2.30
2018,11,12,03,53,2.20
2018,11,12,03,54,2.20
2018,11,12,03,55,2.20
2018,11,12,03,56,2.20
2018,11,12,03,57,2.20
2018,11,12,03,58,2.20
2018,11,12,03,59,2.20
2018,11,12,04,00,2.20
2018,11,12,04,01,2.20
2018,11,12,04,02,2.20
2018,11,12,04,03,2.20
2018,11,12,04,04,2.20
2018,11,12,04,05,2.20
2018,11,12,04,06,2.20
2018,11,12,04,07,2.20
2018,11,12,04,08,2.20
2018,11,12,04,09,2.20
2018,11,12,04,10,2.20
2018,11,12,04,11,2.20
2018,11,12,04,12,2.20
2018,11,12,04,13,2.20
2018,11,12,04,14,2.20
2018,11,12,04,15,2.30
2018,11,12,04,16,2.30
2018,11,12,04,17,2.30
2018,11,12,04,18,2.30
2018,11,12,04,19,2.30
2018,11,12,04,20,2.30
2018,11,12,04,21,2.30
2018,11,12,04,22,2.30
2018,11,12,04,23,2.30
2018,11,12,04,24,2.30
2018,11,12,04,25,2.30
2018,11,12,04,26,2.30
2018,11,12,04,27,2.30
2018,11,12,04,28,2.30
2018,11,12,04,29,2.30
2018,11,12,04,30,2.30
2018,11,12,04,31,2.30
2018,11,12,04,32,2.30
2018,11,12,04,33,2.30
2018,11,12,04,34,2.30
2018,11,12,04,35,2.30
2018,11,12,04,36,2.30
2018,11,12,04,37,2.30
2018,11,12,04,38,2.30
2018,11,12,04,39,2.30
2018,11,12,04,40,2.30
2018,11,12,04,41,2.30
2018,11,12,04,42,2.30
2018,11,12,04,43,2.30
2018,11,12,04,44,2.30
2018,11,12,04,45,2.30
2018,11,12,04,46,2.30
2018,11,12,04,47,2.30
2018,11,12,04,48,2.30
2018,11,12,04,49,2.30
2018,11,12,04,50,2.20
2018,11,12,04,51,2.20
2018,11,12,04,52,2.20
2018,11,12,04,53,2.20
2018,11,12,04,54,2.20
2018,11,12,04,55,2.20
2018,11,12,04,56,2.10
2018,11,12,04,57,2.10
2018,11,12,04,58,2.10
2018,11,12,04,59,2.10
2018,11,12,05,00,2.10
2018,11,12,05,01,2.10
2018,11,12,05,02,2.10
2018,11,12,05,03,2.10
2018,11,12,05,04,2.10
2018,11,12,05,05,2.10
2018,11,12,05,06,2.10
2018,11,12,05,07,2.10
2018,11,12,05,08,2.10
2018,11,12,05,09,2.10
2018,11,12,05,10,2.10
2018,11,12,05,11,2.10
2018,11,12,05,12,2.00
2018,11,12,05,13,2.00
2018,11,12,05,14,2.00
2018,11,12,05,15,2.00
2018,11,12,05,16,1.90
2018,11,12,05,17,1.90
2018,11,12,05,18,1.90
2018,11,12,05,19,1.80
2018,11,12,05,20,1.80
2018,11,12,05,21,1.80
2018,11,12,05,22,1.80
2018,11,12,05,23,1.80
2018,11,12,05,24,1.80
2018,11,12,05,25,1.80
2018,11,12,05,26,1.80
2018,11,12,05,27,1.80
2018,11,12,05,28,1.80
2018,11,12,05,29,1.80
2018,11,12,05,30,1.80
2018,11,12,05,31,1.80
2018,11,12,05,32,1.80
2018,11,12,05,33,1.80
2018,11,12,05,34,1.80
2018,11,12,05,35,1.80
2018,11,12,05,36,1.80
2018,11,12,05,37,1.80
2018,11,12,05,38,1.80
2018,11,12,05,39,1.90
2018,11,12,05,40,1.90
2018,11,12,05,41,1.90
2018,11,12,05,42,1.90
2018,11,12,05,43,1.90
2018,11,12,05,44,1.90
2018,11,12,05,45,1.90
2018,11,12,05,46,1.90
2018,11,12,05,47,1.90
2018,11,12,05,48,1.90
2018,11,12,05,49,1.90
2018,11,12,05,50,1.90
2018,11,12,05,51,1.90
2018,11,12,05,52,1.80
2018,11,12,05,53,1.80
2018,11,12,05,54,1.80
2018,11,12,05,55,1.90
2018,11,12,05,56,1.90
2018,11,12,05,57,1.90
2018,11,12,05,58,1.90
2018,11,12,05,59,1.90
2018,11,12,06,00,1.90
2018,11,12,06,01,2.00
2018,11,12,06,02,2.00
2018,11,12,06,03,2.00
2018,11,12,06,04,2.00
2018,11,12,06,05,2.10
2018,11,12,06,06,2.10
2018,11,12,06,07,2.10
2018,11,12,06,08,2.20
2018,11,12,06,09,2.20
2018,11,12,06,10,2.20
2018,11,12,06,11,2.20
2018,11,12,06,12,2.20
2018,11,12,06,13,2.20
2018,11,12,06,14,2.30
2018,11,12,06,15,2.30
2018,11,12,06,16,2.30
2018,11,12,06,17,2.30
2018,11,12,06,18,2.30
2018,11,12,06,19,2.30
2018,11,12,06,20,2.30
2018,11,12,06,21,2.30
2018,11,12,06,22,2.30
2018,11,12,06,23,2.30
2018,11,12,06,24,2.30
2018,11,12,06,25,2.30
2018,11,12,06,26,2.30
2018,11,12,06,27,2.30
2018,11,12,06,28,2.30
2018,11,12,06,29,2.30
2018,11,12,06,30,2.30
2018,11,12,06,31,2.30
2018,11,12,06,32,2.30
2018,11,12,06,33,2.30
2018,11,12,06,34,2.30
2018,11,12,06,35,2.30
2018,11,12,06,36,2.40
2018,11,12,06,37,2.40
2018,11,12,06,38,2.40
2018,11,12,06,39,2.40
2018,11,12,06,40,2.40
2018,11,12,06,41,2.40
2018,11,12,06,42,2.40
2018,11,12,06,43,2.40
2018,11,12,06,44,2.40
2018,11,12,06,45,2.40
2018,11,12,06,46,2.40
2018,11,12,06,47,2.40
2018,11,12,06,48,2.40
2018,11,12,06,49,2.40
2018,11,12,06,50,2.40
2018,11,12,06,51,2.40
2018,11,12,06,52,2.40
2018,11,12,06,53,2.40
2018,11,12,06,54,2.40
2018,11,12,06,55,2.40
2018,11,12,06,56,2.40
2018,11,12,06,57,2.50
2018,11,12,06,58,2.50
2018,11,12,06,59,2.50
2018,11,12,07,00,2.60
2018,11,12,07,01,2.60
2018,11,12,07,02,2.70
2018,11,12,07,03,2.70
2018,11,12,07,04,2.70
2018,11,12,07,05,2.70
2018,11,12,07,06,2.80
2018,11,12,07,07,2.80
2018,11,12,07,08,2.80
2018,11,12,07,09,2.80
2018,11,12,07,10,2.80
2018,11,12,07,11,2.80
2018,11,12,07,12,2.80
2018,11,12,07,13,2.80
2018,11,12,07,14,2.80
2018,11,12,07,15,2.80
2018,11,12,07,16,2.80
2018,11,12,07,17,2.80
2018,11,12,07,18,2.80
2018,11,12,07,19,2.80
2018,11,12,07,20,2.80
2018,11,12,07,21,2.80
2018,11,12,07,22,2.80
2018,11,12,07,23,2.80
2018,11,12,07,24,2.80
2018,11,12,07,25,2.80
2018,11,12,07,26,2.80
2018,11,12,07,27,2.80
2018,11,12,07,28,2.80
2018,11,12,07,29,2.80
2018,11,12,07,30,2.80
2018,11,12,07,31,2.80
2018,11,12,07,32,2.80
2018,11,12,07,33,2.80
2018,11,12,07,34,2.80
2018,11,12,07,35,2.80
2018,11,12,07,36,2.80
2018,11,12,07,37,2.90
2018,11,12,07,38,2.90
2018,11,12,07,39,2.90
2018,11,12,07,40,2.90
2018,11,12,07,41,2.90
2018,11,12,07,42,2.90
2018,11,12,07,43,2.90
2018,11,12,07,44,2.90
2018,11,12,07,45,2.90
2018,11,12,07,46,2.90
2018,11,12,07,47,2.90
2018,11,12,07,48,2.90
2018,11,12,07,49,3.00
2018,11,12,07,50,3.00
2018,11,12,07,51,3.10
2018,11,12,07,52,3.10
2018,11,12,07,53,3.10
2018,11,12,07,54,3.10
2018,11,12,07,55,3.20
2018,11,12,07,56,3.20
2018,11,12,07,57,3.20
2018,11,12,07,58,3.20
2018,11,12,07,59,3.30
2018,11,12,08,00,3.30
2018,11,12,08,01,3.30
2018,11,12,08,02,3.40
2018,11,12,08,03,3.40
2018,11,12,08,04,3.40
2018,11,12,08,05,3.40
2018,11,12,08,06,3.40
2018,11,12,08,07,3.40
2018,11,12,08,08,3.40
2018,11,12,08,09,3.40
2018,11,12,08,10,3.40
2018,11,12,08,11,3.40
2018,11,12,08,12,3.40
2018,11,12,08,13,3.50
2018,11,12,08,14,3.50
2018,11,12,08,15,3.50
2018,11,12,08,16,3.50
2018,11,12,08,17,3.60
2018,11,12,08,18,3.60
2018,11,12,08,19,3.60
2018,11,12,08,20,3.60
2018,11,12,08,21,3.60
2018,11,12,08,22,3.60
2018,11,12,08,23,3.60
2018,11,12,08,24,3.70
2018,11,12,08,25,3.70
2018,11,12,08,26,3.70
2018,11,12,08,27,3.70
2018,11,12,08,28,3.80
2018,11,12,08,29,3.80
2018,11,12,08,30,3.90
2018,11,12,08,31,3.90
2018,11,12,08,32,3.90
2018,11,12,08,33,4.00
2018,11,12,08,34,4.00
2018,11,12,08,35,4.00
2018,11,12,08,36,4.10
2018,11,12,08,37,4.10
2018,11,12,08,38,4.10
2018,11,12,08,39,4.20
2018,11,12,08,40,4.20
2018,11,12,08,41,4.20
2018,11,12,08,42,4.30
2018,11,12,08,43,4.30
2018,11,12,08,44,4.30
2018,11,12,08,45,4.30
2018,11,12,08,46,4.40
2018,11,12,08,47,4.40
2018,11,12,08,48,4.40
2018,11,12,08,49,4.40
2018,11,12,08,50,4.50
2018,11,12,08,51,4.50
2018,11,12,08,52,4.50
2018,11,12,08,53,4.50
2018,11,12,08,54,4.50
2018,11,12,08,55,4.50
2018,11,12,08,56,4.50
2018,11,12,08,57,4.60
2018,11,12,08,58,4.60
2018,11,12,08,59,4.60
2018,11,12,09,00,4.60
2018,11,12,09,01,4.70
2018,11,12,09,02,4.70
2018,11,12,09,03,4.70
2018,11,12,09,04,4.80
2018,11,12,09,05,4.80
2018,11,12,09,06,4.80
2018,11,12,09,07,4.90
2018,11,12,09,08,4.90
2018,11,12,09,09,5.00
2018,11,12,09,10,5.00
2018,11,12,09,11,5.10
2018,11,12,09,12,5.10
2018,11,12,09,13,5.10
2018,11,12,09,14,5.20
2018,11,12,09,15,5.20
2018,11,12,09,16,5.30
2018,11,12,09,17,5.30
2018,11,12,09,18,5.30
2018,11,12,09,19,5.40
2018,11,12,09,20,5.50
2018,11,12,09,21,5.50
2018,11,12,09,22,5.60
2018,11,12,09,23,5.60
2018,11,12,09,24,5.70
2018,11,12,09,25,5.70
2018,11,12,09,26,5.80
2018,11,12,09,27,5.80
2018,11,12,09,28,5.90
2018,11,12,09,29,6.00
2018,11,12,09,30,6.00
2018,11,12,09,31,6.10
2018,11,12,09,32,6.10
2018,11,12,09,33,6.20
2018,11,12,09,34,6.20
2018,11,12,09,35,6.30
2018,11,12,09,36,6.30
2018,11,12,09,37,6.30
2018,11,12,09,38,6.30
2018,11,12,09,39,6.30
2018,11,12,09,40,6.40
2018,11,12,09,41,6.40
2018,11,12,09,42,6.40
2018,11,12,09,43,6.50
2018,11,12,09,44,6.50
2018,11,12,09,45,6.50
2018,11,12,09,46,6.60
2018,11,12,09,47,6.60
2018,11,12,09,48,6.60
2018,11,12,09,49,6.70
2018,11,12,09,50,6.70
2018,11,12,09,51,6.80
2018,11,12,09,52,6.80
2018,11,12,09,53,6.80
2018,11,12,09,54,6.90
2018,11,12,09,55,6.90
2018,11,12,09,56,6.90
2018,11,12,09,57,6.90
2018,11,12,09,58,6.90
2018,11,12,09,59,6.90
2018,11,12,10,00,6.90
2018,11,12,10,01,6.90
2018,11,12,10,02,6.90
2018,11,12,10,03,6.90
2018,11,12,10,04,6.90
2018,11,12,10,05,6.90
2018,11,12,10,06,6.90
2018,11,12,10,07,7.00
2018,11,12,10,08,7.00
2018,11,12,10,09,7.00
2018,11,12,10,10,7.00
2018,11,12,10,11,7.10
2018,11,12,10,12,7.10
2018,11,12,10,13,7.10
2018,11,12,10,14,7.10
2018,11,12,10,15,7.10
2018,11,12,10,16,7.10
2018,11,12,10,17,7.10
2018,11,12,10,18,7.10
2018,11,12,10,19,7.10
2018,11,12,10,20,7.10
2018,11,12,10,21,7.10
2018,11,12,10,22,7.10
2018,11,12,10,23,7.20
2018,11,12,10,24,7.10
2018,11,12,10,25,7.10
2018,11,12,10,26,7.10
2018,11,12,10,27,7.10
2018,11,12,10,28,7.10
2018,11,12,10,29,7.10
2018,11,12,10,30,7.20
2018,11,12,10,31,7.20
2018,11,12,10,32,7.20
2018,11,12,10,33,7.20
2018,11,12,10,34,7.20
2018,11,12,10,35,7.20
2018,11,12,10,36,7.20
2018,11,12,10,37,7.20
2018,11,12,10,38,7.20
2018,11,12,10,39,7.20
2018,11,12,10,40,7.20
2018,11,12,10,41,7.20
2018,11,12,10,42,7.20
2018,11,12,10,43,7.20
2018,11,12,10,44,7.20
2018,11,12,10,45,7.20
2018,11,12,10,46,7.20
2018,11,12,10,47,7.20
2018,11,12,10,48,7.20
2018,11,12,10,49,7.20
2018,11,12,10,50,7.20
2018,11,12,10,51,7.20
2018,11,12,10,52,7.20
2018,11,12,10,53,7.20
2018,11,12,10,54,7.20
2018,11,12,10,55,7.30
2018,11,12,10,56,7.30
2018,11,12,10,57,7.30
2018,11,12,10,58,7.30
2018,11,12,10,59,7.30
2018,11,12,11,00,7.40
2018,11,12,11,01,7.40
2018,11,12,11,02,7.40
2018,11,12,11,03,7.40
2018,11,12,11,04,7.40
2018,11,12,11,05,7.30
2018,11,12,11,06,7.30
2018,11,12,11,07,7.30
2018,11,12,11,08,7.30
2018,11,12,11,09,7.30
2018,11,12,11,10,7.30
2018,11,12,11,11,7.30
2018,11,12,11,12,7.40
2018,11,12,11,13,7.40
2018,11,12,11,14,7.40
2018,11,12,11,15,7.50
2018,11,12,11,16,7.50
2018,11,12,11,17,7.60
2018,11,12,11,18,7.60
2018,11,12,11,19,7.60
2018,11,12,11,20,7.60
2018,11,12,11,21,7.60
2018,11,12,11,22,7.60
2018,11,12,11,23,7.60
2018,11,12,11,24,7.70
2018,11,12,11,25,7.70
2018,11,12,11,26,7.70
2018,11,12,11,27,7.70
2018,11,12,11,28,7.70
2018,11,12,11,29,7.70
2018,11,12,11,30,7.70
2018,11,12,11,31,7.80
2018,11,12,11,32,7.80
2018,11,12,11,33,7.90
2018,11,12,11,34,7.90
2018,11,12,11,35,7.90
2018,11,12,11,36,7.90
2018,11,12,11,37,7.90
2018,11,12,11,38,8.00
2018,11,12,11,39,8.00
2018,11,12,11,40,8.00
2018,11,12,11,41,8.10
2018,11,12,11,42,8.00
2018,11,12,11,43,8.00
2018,11,12,11,44,7.90
2018,11,12,11,45,7.90
2018,11,12,11,46,8.00
2018,11,12,11,47,8.00
2018,11,12,11,48,8.00
2018,11,12,11,49,8.00
2018,11,12,11,50,8.00
2018,11,12,11,51,8.00
2018,11,12,11,52,8.00
2018,11,12,11,53,8.00
2018,11,12,11,54,8.00
2018,11,12,11,55,8.10
2018,11,12,11,56,8.10
2018,11,12,11,57,8.10
2018,11,12,11,58,8.10
2018,11,12,11,59,8.10
2018,11,12,12,00,8.10
2018,11,12,12,01,8.10
2018,11,12,12,02,8.10
2018,11,12,12,03,8.10
2018,11,12,12,04,8.10
2018,11,12,12,05,8.10
2018,11,12,12,06,8.10
2018,11,12,12,07,8.10
2018,11,12,12,08,8.10
2018,11,12,12,09,8.10
2018,11,12,12,10,8.10
2018,11,12,12,11,8.10
2018,11,12,12,12,8.10
2018,11,12,12,13,8.10
2018,11,12,12,14,8.20
2018,11,12,12,15,8.20
2018,11,12,12,16,8.20
2018,11,12,12,17,8.20
2018,11,12,12,18,8.20
2018,11,12,12,19,8.20
2018,11,12,12,20,8.20
2018,11,12,12,21,8.20
2018,11,12,12,22,8.20
2018,11,12,12,23,8.20
2018,11,12,12,24,8.20
2018,11,12,12,25,8.20
2018,11,12,12,26,8.30
2018,11,12,12,27,8.30
2018,11,12,12,28,8.30
2018,11,12,12,29,8.30
2018,11,12,12,30,8.30
2018,11,12,12,31,8.30
2018,11,12,12,32,8.30
2018,11,12,12,33,8.30
2018,11,12,12,34,8.30
2018,11,12,12,35,8.30
2018,11,12,12,36,8.30
2018,11,12,12,37,8.30
2018,11,12,12,38,8.30
2018,11,12,12,39,8.30
2018,11,12,12,40,8.30
2018,11,12,12,41,8.40
2018,11,12,12,42,8.40
2018,11,12,12,43,8.40
2018,11,12,12,44,8.50
2018,11,12,12,45,8.50
2018,11,12,12,46,8.50
2018,11,12,12,47,8.50
2018,11,12,12,48,8.50
2018,11,12,12,49,8.60
2018,11,12,12,50,8.60
2018,11,12,12,51,8.60
2018,11,12,12,52,8.60
2018,11,12,12,53,8.60
2018,11,12,12,54,8.70
2018,11,12,12,55,8.70
2018,11,12,12,56,8.70
2018,11,12,12,57,8.70
2018,11,12,12,58,8.80
2018,11,12,12,59,8.80
2018,11,12,13,00,8.80
2018,11,12,13,01,8.80
2018,11,12,13,02,8.80
2018,11,12,13,03,8.90
2018,11,12,13,04,8.90
2018,11,12,13,05,8.90
2018,11,12,13,06,9.00
2018,11,12,13,07,9.00
2018,11,12,13,08,9.10
2018,11,12,13,09,9.10
2018,11,12,13,10,9.10
2018,11,12,13,11,9.10
2018,11,12,13,12,9.10
2018,11,12,13,13,9.20
2018,11,12,13,14,9.20
2018,11,12,13,15,9.20
2018,11,12,13,16,9.20
2018,11,12,13,17,9.30
2018,11,12,13,18,9.30
2018,11,12,13,19,9.30
2018,11,12,13,20,9.30
2018,11,12,13,21,9.30
2018,11,12,13,22,9.30
2018,11,12,13,23,9.30
2018,11,12,13,24,9.30
2018,11,12,13,25,9.30
2018,11,12,13,26,9.30
2018,11,12,13,27,9.30
2018,11,12,13,28,9.30
2018,11,12,13,29,9.40
2018,11,12,13,30,9.30
2018,11,12,13,31,9.40
2018,11,12,13,32,9.40
2018,11,12,13,33,9.40
2018,11,12,13,34,9.40
2018,11,12,13,35,9.40
2018,11,12,13,36,9.40
2018,11,12,13,37,9.40
2018,11,12,13,38,9.40
2018,11,12,13,39,9.40
2018,11,12,13,40,9.40
2018,11,12,13,41,9.40
2018,11,12,13,42,9.40
2018,11,12,13,43,9.40
2018,11,12,13,44,9.40
2018,11,12,13,45,9.40
2018,11,12,13,46,9.40
2018,11,12,13,47,9.30
2018,11,12,13,48,9.30
2018,11,12,13,49,9.30
2018,11,12,13,50,9.40
2018,11,12,13,51,9.30
2018,11,12,13,52,9.30
2018,11,12,13,53,9.30
2018,11,12,13,54,9.30
2018,11,12,13,55,9.30
2018,11,12,13,56,9.30
2018,11,12,13,57,9.30
2018,11,12,13,58,9.30
2018,11,12,13,59,9.20
2018,11,12,14,00,9.20
2018,11,12,14,01,9.20
2018,11,12,14,02,9.20
2018,11,12,14,03,9.30
2018,11,12,14,04,9.30
2018,11,12,14,05,9.30
2018,11,12,14,06,9.30
2018,11,12,14,07,9.30
2018,11,12,14,08,9.30
2018,11,12,14,09,9.30
2018,11,12,14,10,9.30
2018,11,12,14,11,9.30
2018,11,12,14,12,9.20
2018,11,12,14,13,9.20
2018,11,12,14,14,9.20
2018,11,12,14,15,9.20
2018,11,12,14,16,9.10
2018,11,12,14,17,9.10
2018,11,12,14,18,9.10
2018,11,12,14,19,9.10
2018,11,12,14,20,9.10
2018,11,12,14,21,9.00
2018,11,12,14,22,9.00
2018,11,12,14,23,8.90
2018,11,12,14,24,8.90
2018,11,12,14,25,8.80
2018,11,12,14,26,8.80
2018,11,12,14,27,8.80
2018,11,12,14,28,8.70
2018,11,12,14,29,8.70
2018,11,12,14,30,8.60
2018,11,12,14,31,8.60
2018,11,12,14,32,8.60
2018,11,12,14,33,8.50
2018,11,12,14,34,8.50
2018,11,12,14,35,8.50
2018,11,12,14,36,8.40
2018,11,12,14,37,8.40
2018,11,12,14,38,8.40
2018,11,12,14,39,8.40
2018,11,12,14,40,8.30
2018,11,12,14,41,8.30
2018,11,12,14,42,8.30
2018,11,12,14,43,8.30
2018,11,12,14,44,8.20
2018,11,12,14,45,8.20
2018,11,12,14,46,8.20
2018,11,12,14,47,8.20
2018,11,12,14,48,8.10
2018,11,12,14,49,8.10
2018,11,12,14,50,8.10
2018,11,12,14,51,8.10
2018,11,12,14,52,8.00
2018,11,12,14,53,8.00
2018,11,12,14,54,7.90
2018,11,12,14,55,7.90
2018,11,12,14,56,7.90
2018,11,12,14,57,7.90
2018,11,12,14,58,7.80
2018,11,12,14,59,7.80
2018,11,12,15,00,7.80
2018,11,12,15,01,7.80
2018,11,12,15,02,7.70
2018,11,12,15,03,7.70
2018,11,12,15,04,7.70
2018,11,12,15,05,7.70
2018,11,12,15,06,7.60
2018,11,12,15,07,7.60
2018,11,12,15,08,7.60
2018,11,12,15,09,7.50
2018,11,12,15,10,7.50
2018,11,12,15,11,7.40
2018,11,12,15,12,7.40
2018,11,12,15,13,7.40
2018,11,12,15,14,7.30
2018,11,12,15,15,7.30
2018,11,12,15,16,7.30
2018,11,12,15,17,7.20
2018,11,12,15,18,7.20
2018,11,12,15,19,7.20
2018,11,12,15,20,7.20
2018,11,12,15,21,7.10
2018,11,12,15,22,7.10
2018,11,12,15,23,7.10
2018,11,12,15,24,7.00
2018,11,12,15,25,7.00
2018,11,12,15,26,7.00
2018,11,12,15,27,7.00
2018,11,12,15,28,7.00
2018,11,12,15,29,6.90
2018,11,12,15,30,6.90
2018,11,12,15,31,6.90
2018,11,12,15,32,6.90
2018,11,12,15,33,6.90
2018,11,12,15,34,6.80
2018,11,12,15,35,6.80
2018,11,12,15,36,6.80
2018,11,12,15,37,6.80
2018,11,12,15,38,6.80
2018,11,12,15,39,6.70
2018,11,12,15,40,6.70
2018,11,12,15,41,6.70
2018,11,12,15,42,6.70
2018,11,12,15,43,6.70
2018,11,12,15,44,6.70
2018,11,12,15,45,6.70
2018,11,12,15,46,6.70
2018,11,12,15,47,6.60
2018,11,12,15,48,6.60
2018,11,12,15,49,6.60
2018,11,12,15,50,6.60
2018,11,12,15,51,6.60
2018,11,12,15,52,6.50
2018,11,12,15,53,6.50
2018,11,12,15,54,6.50
2018,11,12,15,55,6.40
2018,11,12,15,56,6.40
2018,11,12,15,57,6.40
2018,11,12,15,58,6.40
2018,11,12,15,59,6.40
2018,11,12,16,00,6.30
2018,11,12,16,01,6.30
2018,11,12,16,02,6.30
2018,11,12,16,03,6.20
2018,11,12,16,04,6.20
2018,11,12,16,05,6.20
2018,11,12,16,06,6.10
2018,11,12,16,07,6.10
2018,11,12,16,08,6.10
2018,11,12,16,09,6.10
2018,11,12,16,10,6.00
2018,11,12,16,11,6.00
2018,11,12,16,12,5.90
2018,11,12,16,13,5.90
2018,11,12,16,14,5.90
2018,11,12,16,15,5.80
2018,11,12,16,16,5.80
2018,11,12,16,17,5.70
2018,11,12,16,18,5.70
2018,11,12,16,19,5.70
2018,11,12,16,20,5.70
2018,11,12,16,21,5.70
2018,11,12,16,22,5.60
2018,11,12,16,23,5.60
2018,11,12,16,24,5.60
2018,11,12,16,25,5.50
2018,11,12,16,26,5.50
2018,11,12,16,27,5.40
2018,11,12,16,28,5.40
2018,11,12,16,29,5.40
2018,11,12,16,30,5.30
2018,11,12,16,31,5.30
2018,11,12,16,32,5.30
2018,11,12,16,33,5.30
2018,11,12,16,34,5.20
2018,11,12,16,35,5.20
2018,11,12,16,36,5.20
2018,11,12,16,37,5.20
2018,11,12,16,38,5.10
2018,11,12,16,39,5.10
2018,11,12,16,40,5.00
2018,11,12,16,41,5.00
2018,11,12,16,42,4.90
2018,11,12,16,43,4.90
2018,11,12,16,44,4.90
2018,11,12,16,45,4.90
2018,11,12,16,46,4.80
2018,11,12,16,47,4.80
2018,11,12,16,48,4.80
2018,11,12,16,49,4.70
2018,11,12,16,50,4.70
2018,11,12,16,51,4.70
2018,11,12,16,52,4.70
2018,11,12,16,53,4.70
2018,11,12,16,54,4.60
2018,11,12,16,55,4.60
2018,11,12,16,56,4.60
2018,11,12,16,57,4.60
2018,11,12,16,58,4.50
2018,11,12,16,59,4.50
2018,11,12,17,00,4.50
2018,11,12,17,01,4.40
2018,11,12,17,02,4.40
2018,11,12,17,03,4.40
2018,11,12,17,04,4.40
2018,11,12,17,05,4.30
2018,11,12,17,06,4.30
2018,11,12,17,07,4.30
2018,11,12,17,08,4.30
2018,11,12,17,09,4.30
2018,11,12,17,10,4.30
2018,11,12,17,11,4.20
2018,11,12,17,12,4.20
2018,11,12,17,13,4.20
2018,11,12,17,14,4.20
2018,11,12,17,15,4.10
2018,11,12,17,16,4.10
2018,11,12,17,17,4.10
2018,11,12,17,18,4.10
2018,11,12,17,19,4.00
2018,11,12,17,20,4.00
2018,11,12,17,21,4.00
2018,11,12,17,22,3.90
2018,11,12,17,23,3.90
2018,11,12,17,24,3.90
2018,11,12,17,25,3.90
2018,11,12,17,26,3.90
2018,11,12,17,27,3.80
2018,11,12,17,28,3.80
2018,11,12,17,29,3.80
2018,11,12,17,30,3.80
2018,11,12,17,31,3.80
2018,11,12,17,32,3.70
2018,11,12,17,33,3.70
2018,11,12,17,34,3.70
2018,11,12,17,35,3.70
2018,11,12,17,36,3.60
2018,11,12,17,37,3.60
2018,11,12,17,38,3.60
2018,11,12,17,39,3.60
2018,11,12,17,40,3.60
2018,11,12,17,41,3.60
2018,11,12,17,42,3.50
2018,11,12,17,43,3.50
2018,11,12,17,44,3.50
2018,11,12,17,45,3.50
2018,11,12,17,46,3.50
2018,11,12,17,47,3.50
2018,11,12,17,48,3.50
2018,11,12,17,49,3.40
2018,11,12,17,50,3.40
2018,11,12,17,51,3.40
2018,11,12,17,52,3.40
2018,11,12,17,53,3.40
2018,11,12,17,54,3.40
2018,11,12,17,55,3.40
2018,11,12,17,56,3.30
2018,11,12,17,57,3.30
2018,11,12,17,58,3.30
2018,11,12,17,59,3.30
2018,11,12,18,00,3.30
2018,11,12,18,01,3.30
2018,11,12,18,02,3.30
2018,11,12,18,03,3.30
2018,11,12,18,04,3.30
2018,11,12,18,05,3.30
2018,11,12,18,06,3.30